Time,TemperatureF,DewpointF,PressureIn,WindDirection,WindDirectionDegrees,WindSpeedMPH,WindSpeedGustMPH,Humidity,HourlyPrecipIn,Conditions,Clouds,dailyrainin,SolarRadiationWatts/m^2,SoftwareType,DateUTC
2018-02-21 00:01:00,57.6,53.8,30.30,SSE,149,0.0,0.0,87,0.00,,,0.01,0.0,meteohub,2018-02-21 05:01:00,
2018-02-21 00:07:00,57.6,53.8,30.30,SSE,149,0.0,0.0,87,0.00,,,0.00,0.0,meteohub,2018-02-21 05:07:00,
2018-02-21 00:13:00,57.6,54.0,30.30,SSE,149,0.0,0.0,88,0.00,,,0.00,0.0,meteohub,2018-02-21 05:13:00,
2018-02-21 00:20:00,57.6,54.0,30.30,SSE,149,0.0,0.0,88,0.00,,,0.00,0.0,meteohub,2018-02-21 05:20:00,
2018-02-21 00:26:00,57.7,54.1,30.30,SE,124,0.0,3.0,88,0.00,,,0.00,0.0,meteohub,2018-02-21 05:26:00,
2018-02-21 00:32:00,57.7,54.5,30.30,South,188,2.0,4.0,89,0.00,,,0.00,0.0,meteohub,2018-02-21 05:32:00,
2018-02-21 00:38:00,57.6,54.3,30.29,SSE,154,0.0,4.0,89,0.00,,,0.00,0.0,meteohub,2018-02-21 05:38:00,
2018-02-21 00:44:00,57.6,54.3,30.29,SE,127,2.0,3.0,89,0.00,,,0.00,0.0,meteohub,2018-02-21 05:44:00,
2018-02-21 00:50:00,57.4,54.1,30.29,SSW,193,0.0,5.0,89,0.00,,,0.00,0.0,meteohub,2018-02-21 05:50:00,
2018-02-21 00:56:00,57.0,53.8,30.29,West,264,0.0,5.0,89,0.00,,,0.00,0.0,meteohub,2018-02-21 05:56:00,
2018-02-21 01:02:00,56.8,53.6,30.29,SSE,161,1.0,4.0,89,0.00,,,0.00,0.0,meteohub,2018-02-21 06:02:00,
2018-02-21 01:09:00,56.7,53.8,30.28,SE,142,0.0,3.0,90,0.00,,,0.00,0.0,meteohub,2018-02-21 06:09:00,
2018-02-21 01:15:00,56.5,53.6,30.28,East,97,1.0,5.0,90,0.00,,,0.00,0.0,meteohub,2018-02-21 06:15:00,
2018-02-21 01:21:00,56.1,53.2,30.28,SSE,151,0.0,4.0,90,0.00,,,0.00,0.0,meteohub,2018-02-21 06:21:00,
2018-02-21 01:27:00,55.9,53.1,30.28,SSW,199,1.0,5.0,90,0.00,,,0.00,0.0,meteohub,2018-02-21 06:27:00,
2018-02-21 01:33:00,55.8,52.9,30.28,SSE,155,0.0,5.0,90,0.00,,,0.00,0.0,meteohub,2018-02-21 06:33:00,
2018-02-21 01:39:00,55.8,52.9,30.28,ESE,111,2.0,5.0,90,0.00,,,0.00,0.0,meteohub,2018-02-21 06:39:00,
2018-02-21 01:45:00,55.6,52.7,30.28,SSE,148,2.0,4.0,90,0.00,,,0.00,0.0,meteohub,2018-02-21 06:45:00,
2018-02-21 01:51:00,55.4,52.9,30.28,South,176,2.0,4.0,91,0.00,,,0.00,0.0,meteohub,2018-02-21 06:51:00,
2018-02-21 01:57:00,55.2,52.7,30.27,South,178,2.0,4.0,91,0.00,,,0.00,0.0,meteohub,2018-02-21 06:57:00,
2018-02-21 02:04:00,55.0,52.5,30.28,West,264,1.0,4.0,91,0.00,,,0.00,0.0,meteohub,2018-02-21 07:04:00,
2018-02-21 02:10:00,55.0,52.5,30.27,SSE,151,0.0,4.0,91,0.00,,,0.00,0.0,meteohub,2018-02-21 07:10:00,
2018-02-21 02:16:00,54.9,52.3,30.27,SSE,147,2.0,3.0,91,0.00,,,0.00,0.0,meteohub,2018-02-21 07:16:00,
2018-02-21 02:22:00,54.5,52.0,30.27,South,179,0.0,3.0,91,0.00,,,0.00,0.0,meteohub,2018-02-21 07:22:00,
2018-02-21 02:28:00,54.0,51.4,30.27,SE,145,2.0,5.0,91,0.00,,,0.00,0.0,meteohub,2018-02-21 07:28:00,
2018-02-21 02:34:00,53.4,50.9,30.27,South,186,2.0,5.0,91,0.00,,,0.00,0.0,meteohub,2018-02-21 07:34:00,
2018-02-21 02:40:00,53.1,50.5,30.27,ESE,121,0.0,4.0,91,0.00,,,0.00,0.0,meteohub,2018-02-21 07:40:00,
2018-02-21 02:46:00,52.5,50.0,30.27,SSE,152,2.0,4.0,91,0.00,,,0.00,0.0,meteohub,2018-02-21 07:46:00,
2018-02-21 02:52:00,52.3,49.8,30.27,SE,124,0.0,4.0,91,0.00,,,0.00,0.0,meteohub,2018-02-21 07:52:00,
2018-02-21 02:57:00,52.2,49.6,30.27,SE,124,0.0,4.0,91,0.00,,,0.00,0.0,meteohub,2018-02-21 07:57:00,
2018-02-21 03:03:00,52.0,49.6,30.27,SE,127,0.0,4.0,92,0.00,,,0.00,0.0,meteohub,2018-02-21 08:03:00,
2018-02-21 03:09:00,51.8,49.3,30.27,SE,144,0.0,4.0,91,0.00,,,0.00,0.0,meteohub,2018-02-21 08:09:00,
2018-02-21 03:15:00,51.6,49.5,30.27,SE,125,0.0,2.0,92,0.00,,,0.00,0.0,meteohub,2018-02-21 08:15:00,
2018-02-21 03:21:00,51.6,49.5,30.27,SSW,212,0.0,2.0,92,0.00,,,0.00,0.0,meteohub,2018-02-21 08:21:00,
2018-02-21 03:27:00,51.6,49.5,30.27,SSW,212,0.0,2.0,92,0.00,,,0.00,0.0,meteohub,2018-02-21 08:27:00,
2018-02-21 03:33:00,51.6,49.5,30.27,SSW,212,0.0,2.0,92,0.00,,,0.00,0.0,meteohub,2018-02-21 08:33:00,
2018-02-21 03:40:00,51.6,49.5,30.27,SSW,212,0.0,2.0,92,0.00,,,0.00,0.0,meteohub,2018-02-21 08:40:00,
2018-02-21 03:46:00,51.6,49.5,30.27,SSW,212,0.0,1.0,92,0.00,,,0.00,0.0,meteohub,2018-02-21 08:46:00,
2018-02-21 03:52:00,51.6,49.5,30.26,SSW,212,0.0,1.0,92,0.00,,,0.00,0.0,meteohub,2018-02-21 08:52:00,
2018-02-21 03:58:00,51.8,49.8,30.27,SSW,212,0.0,2.0,93,0.00,,,0.00,0.0,meteohub,2018-02-21 08:58:00,
2018-02-21 04:04:00,52.0,50.0,30.26,SSW,212,0.0,2.0,93,0.00,,,0.00,0.0,meteohub,2018-02-21 09:04:00,
2018-02-21 04:11:00,52.0,50.0,30.27,SSW,212,0.0,1.0,93,0.00,,,0.00,0.0,meteohub,2018-02-21 09:11:00,
2018-02-21 04:17:00,52.2,50.2,30.27,SSW,212,0.0,0.0,93,0.00,,,0.00,0.0,meteohub,2018-02-21 09:17:00,
2018-02-21 04:23:00,52.2,50.2,30.27,SSW,212,0.0,0.0,93,0.00,,,0.00,0.0,meteohub,2018-02-21 09:23:00,
2018-02-21 04:29:00,52.2,50.2,30.27,SSW,212,0.0,0.0,93,0.00,,,0.00,0.0,meteohub,2018-02-21 09:29:00,
2018-02-21 04:36:00,52.3,50.4,30.27,SSW,212,0.0,0.0,93,0.00,,,0.00,0.0,meteohub,2018-02-21 09:36:00,
2018-02-21 04:42:00,52.3,50.4,30.27,SSW,212,0.0,0.0,93,0.00,,,0.00,0.0,meteohub,2018-02-21 09:42:00,
2018-02-21 04:48:00,52.5,50.5,30.27,SSW,212,0.0,0.0,93,0.00,,,0.00,0.0,meteohub,2018-02-21 09:48:00,
2018-02-21 04:54:00,52.5,50.5,30.26,SSW,212,0.0,1.0,93,0.00,,,0.00,0.0,meteohub,2018-02-21 09:54:00,
2018-02-21 05:00:00,52.7,50.7,30.27,SSW,212,0.0,0.0,93,0.00,,,0.00,0.0,meteohub,2018-02-21 10:00:00,
2018-02-21 05:06:00,52.9,50.9,30.26,SSW,212,0.0,0.0,93,0.00,,,0.00,0.0,meteohub,2018-02-21 10:06:00,
2018-02-21 05:12:00,52.9,50.9,30.26,SSW,212,0.0,0.0,93,0.00,,,0.00,0.0,meteohub,2018-02-21 10:12:00,
2018-02-21 05:18:00,52.9,50.9,30.26,SSW,212,0.0,0.0,93,0.00,,,0.00,0.0,meteohub,2018-02-21 10:18:00,
2018-02-21 05:24:00,53.1,51.1,30.27,SSW,212,0.0,2.0,93,0.00,,,0.00,0.0,meteohub,2018-02-21 10:24:00,
2018-02-21 05:31:00,53.2,51.3,30.27,SE,140,2.0,2.0,93,0.00,,,0.00,0.0,meteohub,2018-02-21 10:31:00,
2018-02-21 05:37:00,53.2,51.3,30.26,SE,138,1.0,2.0,93,0.00,,,0.00,0.0,meteohub,2018-02-21 10:37:00,
2018-02-21 05:43:00,53.2,51.3,30.27,SE,138,0.0,2.0,93,0.00,,,0.00,0.0,meteohub,2018-02-21 10:43:00,
2018-02-21 05:49:00,53.2,51.3,30.27,SE,138,0.0,2.0,93,0.00,,,0.00,0.0,meteohub,2018-02-21 10:49:00,
2018-02-21 05:55:00,53.2,51.3,30.26,SE,138,0.0,0.0,93,0.00,,,0.00,0.0,meteohub,2018-02-21 10:55:00,
2018-02-21 06:01:00,53.2,51.3,30.26,SE,138,0.0,0.0,93,0.00,,,0.00,0.0,meteohub,2018-02-21 11:01:00,
2018-02-21 06:07:00,53.2,51.3,30.26,SE,138,0.0,0.0,93,0.00,,,0.00,0.0,meteohub,2018-02-21 11:07:00,
2018-02-21 06:13:00,53.2,51.3,30.26,SE,138,0.0,0.0,93,0.00,,,0.00,0.0,meteohub,2018-02-21 11:13:00,
2018-02-21 06:20:00,53.4,51.8,30.26,SE,138,0.0,0.0,94,0.00,,,0.00,0.0,meteohub,2018-02-21 11:20:00,
2018-02-21 06:26:00,53.6,52.0,30.27,SE,138,0.0,0.0,94,0.00,,,0.00,0.0,meteohub,2018-02-21 11:26:00,
2018-02-21 06:32:00,54.1,52.5,30.27,SE,138,0.0,0.0,94,0.00,,,0.00,0.0,meteohub,2018-02-21 11:32:00,
2018-02-21 06:38:00,54.5,52.9,30.27,SE,138,0.0,0.0,94,0.00,,,0.00,0.0,meteohub,2018-02-21 11:38:00,
2018-02-21 06:44:00,55.0,53.4,30.27,SE,138,0.0,0.0,94,0.00,,,0.00,0.0,meteohub,2018-02-21 11:44:00,
2018-02-21 06:50:00,55.6,54.0,30.27,SSE,166,0.0,0.0,94,0.00,,,0.00,0.0,meteohub,2018-02-21 11:50:00,
2018-02-21 06:56:00,56.1,54.5,30.27,WNW,295,0.0,0.0,94,0.00,,,0.00,0.0,meteohub,2018-02-21 11:56:00,
2018-02-21 07:02:00,56.7,55.0,30.27,WNW,292,0.0,3.0,94,0.00,,,0.00,0.0,meteohub,2018-02-21 12:02:00,
2018-02-21 07:09:00,57.0,55.2,30.27,WNW,282,0.0,3.0,94,0.00,,,0.00,0.0,meteohub,2018-02-21 12:09:00,
2018-02-21 07:15:00,57.4,55.6,30.27,ESE,113,0.0,3.0,94,0.00,,,0.00,0.0,meteohub,2018-02-21 12:15:00,
2018-02-21 07:21:00,57.7,55.9,30.27,SSE,148,0.0,4.0,94,0.00,,,0.00,0.0,meteohub,2018-02-21 12:21:00,
2018-02-21 07:27:00,57.9,56.1,30.27,SE,130,0.0,4.0,94,0.00,,,0.00,0.0,meteohub,2018-02-21 12:27:00,
2018-02-21 07:33:00,57.9,56.1,30.27,SSE,161,0.0,3.0,94,0.00,,,0.00,0.0,meteohub,2018-02-21 12:33:00,
2018-02-21 07:39:00,58.3,56.5,30.27,SSE,168,0.0,4.0,94,0.00,,,0.00,0.0,meteohub,2018-02-21 12:39:00,
2018-02-21 07:45:00,58.5,56.7,30.27,SSW,206,0.0,4.0,94,0.00,,,0.00,0.0,meteohub,2018-02-21 12:45:00,
2018-02-21 07:51:00,58.5,56.7,30.27,SSW,200,0.0,4.0,94,0.00,,,0.00,0.0,meteohub,2018-02-21 12:51:00,
2018-02-21 07:57:00,58.6,56.8,30.27,SSE,166,0.0,3.0,94,0.00,,,0.00,0.0,meteohub,2018-02-21 12:57:00,
2018-02-21 08:04:00,58.6,56.8,30.27,SSE,154,2.0,2.0,94,0.00,,,0.00,0.0,meteohub,2018-02-21 13:04:00,
2018-02-21 08:10:00,58.6,56.8,30.27,ESE,116,1.0,2.0,94,0.00,,,0.00,0.0,meteohub,2018-02-21 13:10:00,
2018-02-21 08:16:00,58.5,56.7,30.27,ESE,118,2.0,3.0,94,0.00,,,0.00,0.0,meteohub,2018-02-21 13:16:00,
2018-02-21 08:22:00,58.5,56.7,30.27,SE,140,1.0,3.0,94,0.00,,,0.00,0.0,meteohub,2018-02-21 13:22:00,
2018-02-21 08:26:00,58.6,56.8,30.27,SE,141,0.0,3.0,94,0.00,,,0.00,0.0,meteohub,2018-02-21 13:26:00,
2018-02-21 08:32:00,58.6,56.8,30.27,SE,125,0.0,3.0,94,0.00,,,0.00,0.0,meteohub,2018-02-21 13:32:00,
2018-02-21 08:38:00,58.8,57.0,30.27,South,179,0.0,3.0,94,0.00,,,0.00,0.0,meteohub,2018-02-21 13:38:00,
2018-02-21 08:44:00,58.8,57.0,30.27,SE,140,1.0,3.0,94,0.00,,,0.00,0.0,meteohub,2018-02-21 13:44:00,
2018-02-21 08:50:00,58.8,57.0,30.27,SE,138,0.0,3.0,94,0.00,,,0.00,0.0,meteohub,2018-02-21 13:50:00,
2018-02-21 08:57:00,59.2,57.4,30.26,WSW,250,0.0,3.0,94,0.00,,,0.00,0.0,meteohub,2018-02-21 13:57:00,
2018-02-21 09:03:00,59.2,57.4,30.27,SW,224,0.0,3.0,94,0.00,,,0.00,0.0,meteohub,2018-02-21 14:03:00,
2018-02-21 09:09:00,59.2,57.4,30.27,East,99,0.0,2.0,94,0.00,,,0.00,0.0,meteohub,2018-02-21 14:09:00,
2018-02-21 09:15:00,59.4,57.6,30.27,South,178,0.0,3.0,94,0.00,,,0.00,0.0,meteohub,2018-02-21 14:15:00,
2018-02-21 09:21:00,59.5,57.7,30.27,SW,227,0.0,4.0,94,0.00,,,0.00,0.0,meteohub,2018-02-21 14:21:00,
2018-02-21 09:27:00,60.1,58.3,30.27,SW,227,1.0,6.0,94,0.00,,,0.00,0.0,meteohub,2018-02-21 14:27:00,
2018-02-21 09:33:00,60.3,58.5,30.27,WNW,293,0.0,6.0,94,0.00,,,0.00,0.0,meteohub,2018-02-21 14:33:00,
2018-02-21 09:39:00,60.6,58.8,30.27,WNW,295,0.0,6.0,94,0.00,,,0.00,0.0,meteohub,2018-02-21 14:39:00,
2018-02-21 09:46:00,61.0,59.2,30.27,WNW,295,0.0,4.0,94,0.00,,,0.00,0.0,meteohub,2018-02-21 14:46:00,
2018-02-21 09:52:00,61.2,59.4,30.27,WNW,293,1.0,2.0,94,0.00,,,0.00,0.0,meteohub,2018-02-21 14:52:00,
2018-02-21 09:58:00,61.2,59.4,30.26,WSW,252,1.0,3.0,94,0.00,,,0.00,0.0,meteohub,2018-02-21 14:58:00,
2018-02-21 10:04:00,61.5,59.7,30.26,WSW,238,0.0,4.0,94,0.00,,,0.00,0.0,meteohub,2018-02-21 15:04:00,
2018-02-21 10:10:00,61.9,60.1,30.26,SW,217,0.0,5.0,94,0.00,,,0.00,0.0,meteohub,2018-02-21 15:10:00,
2018-02-21 10:16:00,62.1,60.3,30.26,WNW,299,2.0,5.0,94,0.00,,,0.00,0.0,meteohub,2018-02-21 15:16:00,
2018-02-21 10:22:00,62.2,60.3,30.27,NW,312,3.0,6.0,93,0.00,,,0.00,0.0,meteohub,2018-02-21 15:22:00,
2018-02-21 10:28:00,62.8,60.8,30.26,WSW,252,5.0,7.0,93,0.00,,,0.00,0.0,meteohub,2018-02-21 15:28:00,
2018-02-21 10:35:00,63.1,61.2,30.26,SE,127,2.0,7.0,93,0.00,,,0.00,0.0,meteohub,2018-02-21 15:35:00,
2018-02-21 10:41:00,63.7,61.3,30.26,SSE,155,2.0,6.0,92,0.00,,,0.00,0.0,meteohub,2018-02-21 15:41:00,
2018-02-21 10:47:00,64.6,61.9,30.25,SE,127,1.0,6.0,91,0.00,,,0.00,0.0,meteohub,2018-02-21 15:47:00,
2018-02-21 10:53:00,65.3,62.2,30.25,WSW,255,1.0,5.0,90,0.00,,,0.00,0.0,meteohub,2018-02-21 15:53:00,
2018-02-21 10:59:00,66.0,62.4,30.25,WSW,244,1.0,7.0,88,0.00,,,0.00,0.0,meteohub,2018-02-21 15:59:00,
2018-02-21 11:05:00,66.9,62.6,30.24,NW,307,3.0,7.0,86,0.00,,,0.00,0.0,meteohub,2018-02-21 16:05:00,
2018-02-21 11:11:00,67.8,62.1,30.24,WNW,299,1.0,5.0,82,0.00,,,0.00,0.0,meteohub,2018-02-21 16:11:00,
2018-02-21 11:17:00,68.7,62.2,30.24,NNW,330,1.0,5.0,80,0.00,,,0.00,0.0,meteohub,2018-02-21 16:17:00,
2018-02-21 11:23:00,69.4,61.9,30.23,West,261,1.0,5.0,77,0.00,,,0.00,0.0,meteohub,2018-02-21 16:23:00,
2018-02-21 11:30:00,70.3,62.1,30.23,NW,321,2.0,4.0,75,0.00,,,0.00,0.0,meteohub,2018-02-21 16:30:00,
2018-02-21 11:36:00,71.1,61.9,30.22,WSW,244,2.0,7.0,73,0.00,,,0.00,0.0,meteohub,2018-02-21 16:36:00,
2018-02-21 11:42:00,71.4,62.2,30.22,WNW,289,4.0,9.0,73,0.00,,,0.00,0.0,meteohub,2018-02-21 16:42:00,
2018-02-21 11:48:00,71.8,61.5,30.22,WSW,257,5.0,9.0,70,0.00,,,0.00,0.0,meteohub,2018-02-21 16:48:00,
2018-02-21 11:54:00,72.1,61.3,30.22,WSW,247,1.0,9.0,69,0.00,,,0.00,,meteohub,2018-02-21 16:54:00,
2018-02-21 12:00:00,72.3,61.5,30.21,NNW,348,3.0,11.0,69,0.00,,,0.00,0.0,meteohub,2018-02-21 17:00:00,
2018-02-21 12:06:00,73.0,62.2,30.20,West,268,3.0,7.0,69,0.00,,,0.00,0.0,meteohub,2018-02-21 17:06:00,
2018-02-21 12:12:00,73.6,62.8,30.20,West,275,3.0,6.0,69,0.00,,,0.00,0.0,meteohub,2018-02-21 17:12:00,
2018-02-21 12:19:00,73.9,62.2,30.21,East,92,2.0,5.0,67,0.00,,,0.00,0.0,meteohub,2018-02-21 17:19:00,
2018-02-21 12:25:00,74.1,62.1,30.20,West,276,2.0,6.0,66,0.00,,,0.00,0.0,meteohub,2018-02-21 17:25:00,
2018-02-21 12:31:00,74.7,62.1,30.20,ESE,104,1.0,7.0,65,0.00,,,0.00,0.0,meteohub,2018-02-21 17:31:00,
2018-02-21 12:37:00,74.8,62.2,30.20,SW,219,3.0,7.0,65,0.00,,,0.00,0.0,meteohub,2018-02-21 17:37:00,
2018-02-21 12:43:00,74.8,62.2,30.20,ESE,121,3.0,6.0,65,0.00,,,0.00,0.0,meteohub,2018-02-21 17:43:00,
2018-02-21 12:49:00,75.0,62.1,30.20,NW,323,1.0,6.0,64,0.00,,,0.00,0.0,meteohub,2018-02-21 17:49:00,
2018-02-21 12:55:00,74.8,61.9,30.20,SSE,162,1.0,6.0,64,0.00,,,0.00,0.0,meteohub,2018-02-21 17:55:00,
2018-02-21 13:01:00,75.0,61.5,30.19,North,0,1.0,6.0,63,0.00,,,0.00,0.0,meteohub,2018-02-21 18:01:00,
2018-02-21 13:07:00,75.2,62.2,30.18,NW,314,3.0,6.0,64,0.00,,,0.00,0.0,meteohub,2018-02-21 18:07:00,
2018-02-21 13:14:00,75.6,62.6,30.19,SSW,195,2.0,5.0,64,0.00,,,0.00,0.0,meteohub,2018-02-21 18:14:00,
2018-02-21 13:20:00,75.9,62.4,30.18,South,183,1.0,5.0,63,0.00,,,0.00,14.0,meteohub,2018-02-21 18:20:00,
2018-02-21 13:26:00,76.3,62.2,30.17,West,272,2.0,7.0,62,0.00,,,0.00,0.0,meteohub,2018-02-21 18:26:00,
2018-02-21 13:32:00,76.5,62.4,30.18,ENE,58,3.0,7.0,62,0.00,,,0.00,0.0,meteohub,2018-02-21 18:32:00,
2018-02-21 13:38:00,76.5,62.4,30.17,South,185,2.0,10.0,62,0.00,,,0.00,0.0,meteohub,2018-02-21 18:38:00,
2018-02-21 13:44:00,76.6,62.6,30.17,West,279,2.0,10.0,62,0.00,,,0.00,0.0,meteohub,2018-02-21 18:44:00,
2018-02-21 13:50:00,76.8,62.4,30.17,WNW,282,1.0,5.0,61,0.00,,,0.00,0.0,meteohub,2018-02-21 18:50:00,
2018-02-21 13:56:00,77.2,62.6,30.17,West,272,5.0,5.0,61,0.00,,,0.00,0.0,meteohub,2018-02-21 18:56:00,
2018-02-21 14:02:00,77.4,62.8,30.17,NW,305,1.0,6.0,61,0.00,,,0.00,0.0,meteohub,2018-02-21 19:02:00,
2018-02-21 14:07:00,77.2,62.2,30.17,WSW,245,3.0,6.0,60,0.00,,,0.00,0.0,meteohub,2018-02-21 19:07:00,
2018-02-21 14:13:00,76.8,61.9,30.17,SE,134,2.0,6.0,60,0.00,,,0.00,0.0,meteohub,2018-02-21 19:13:00,
2018-02-21 14:19:00,76.8,61.3,30.17,ESE,109,1.0,6.0,59,0.00,,,0.00,0.0,meteohub,2018-02-21 19:19:00,
2018-02-21 14:25:00,76.8,61.9,30.17,West,271,3.0,6.0,60,0.00,,,0.00,0.0,meteohub,2018-02-21 19:25:00,
2018-02-21 14:31:00,77.2,61.7,30.17,West,262,3.0,6.0,59,0.00,,,0.00,0.0,meteohub,2018-02-21 19:31:00,
2018-02-21 14:37:00,76.8,61.9,30.17,NW,309,1.0,6.0,60,0.00,,,0.00,0.0,meteohub,2018-02-21 19:37:00,
2018-02-21 14:43:00,76.6,61.7,30.17,West,266,2.0,6.0,60,0.00,,,0.00,0.0,meteohub,2018-02-21 19:43:00,
2018-02-21 14:49:00,76.8,61.9,30.17,SE,125,1.0,6.0,60,0.00,,,0.00,0.0,meteohub,2018-02-21 19:49:00,
2018-02-21 14:55:00,77.2,62.2,30.17,West,259,2.0,5.0,60,0.00,,,0.00,0.0,meteohub,2018-02-21 19:55:00,
2018-02-21 15:02:00,77.2,62.2,30.17,SE,130,0.0,5.0,60,0.00,,,0.00,0.0,meteohub,2018-02-21 20:02:00,
2018-02-21 15:08:00,77.0,61.5,30.17,SW,219,1.0,6.0,59,0.00,,,0.00,0.0,meteohub,2018-02-21 20:08:00,
2018-02-21 15:14:00,76.8,61.9,30.17,West,281,1.0,6.0,60,0.00,,,0.00,0.0,meteohub,2018-02-21 20:14:00,
2018-02-21 15:20:00,76.6,61.7,30.17,West,281,0.0,5.0,60,0.00,,,0.00,0.0,meteohub,2018-02-21 20:20:00,
2018-02-21 15:26:00,76.6,62.2,30.17,WSW,247,3.0,5.0,61,0.00,,,0.00,0.0,meteohub,2018-02-21 20:26:00,
2018-02-21 15:32:00,76.6,62.2,30.17,ESE,120,2.0,5.0,61,0.00,,,0.00,0.0,meteohub,2018-02-21 20:32:00,
2018-02-21 15:37:00,76.6,62.2,30.17,SSW,203,1.0,5.0,61,0.00,,,0.00,0.0,meteohub,2018-02-21 20:37:00,
2018-02-21 15:42:00,76.6,62.2,30.17,NW,309,1.0,5.0,61,0.00,,,0.00,0.0,meteohub,2018-02-21 20:42:00,
2018-02-21 15:47:00,76.6,62.2,30.17,West,272,1.0,6.0,61,0.00,,,0.00,0.0,meteohub,2018-02-21 20:47:00,
2018-02-21 15:53:00,76.6,62.2,30.17,SW,227,2.0,9.0,61,0.00,,,0.00,0.0,meteohub,2018-02-21 20:53:00,
2018-02-21 15:59:00,76.5,62.1,30.17,West,261,1.0,9.0,61,0.00,,,0.00,0.0,meteohub,2018-02-21 20:59:00,
2018-02-21 16:06:00,76.5,62.4,30.17,SW,220,2.0,5.0,62,0.00,,,0.00,0.0,meteohub,2018-02-21 21:06:00,
2018-02-21 16:12:00,76.3,62.2,30.17,NW,314,1.0,6.0,62,0.00,,,0.00,0.0,meteohub,2018-02-21 21:12:00,
2018-02-21 16:18:00,76.3,62.2,30.17,WSW,254,2.0,6.0,62,0.00,,,0.00,0.0,meteohub,2018-02-21 21:18:00,
2018-02-21 16:24:00,76.1,62.1,30.17,NW,307,1.0,6.0,62,0.00,,,0.00,,meteohub,2018-02-21 21:24:00,
2018-02-21 16:30:00,75.9,61.9,30.17,West,271,1.0,4.0,62,0.00,,,0.00,0.0,meteohub,2018-02-21 21:30:00,
2018-02-21 16:37:00,75.7,61.9,30.17,East,93,2.0,3.0,62,0.00,,,0.00,0.0,meteohub,2018-02-21 21:37:00,
2018-02-21 16:42:00,75.7,61.9,30.17,SSE,155,0.0,5.0,62,0.00,,,0.00,0.0,meteohub,2018-02-21 21:42:00,
2018-02-21 16:47:00,75.6,62.1,30.18,ESE,104,1.0,5.0,63,0.00,,,0.00,0.0,meteohub,2018-02-21 21:47:00,
2018-02-21 16:53:00,75.6,62.1,30.18,WSW,237,1.0,5.0,63,0.00,,,0.00,0.0,meteohub,2018-02-21 21:53:00,
2018-02-21 16:59:00,75.4,62.4,30.19,SW,224,1.0,4.0,64,0.00,,,0.00,0.0,meteohub,2018-02-21 21:59:00,
2018-02-21 17:05:00,75.2,62.2,30.18,NW,310,2.0,5.0,64,0.00,,,0.00,0.0,meteohub,2018-02-21 22:05:00,
2018-02-21 17:12:00,74.8,62.2,30.18,ESE,107,3.0,6.0,65,0.00,,,0.00,0.0,meteohub,2018-02-21 22:12:00,
2018-02-21 17:18:00,74.7,62.1,30.18,WSW,243,1.0,6.0,65,0.00,,,0.00,0.0,meteohub,2018-02-21 22:18:00,
2018-02-21 17:24:00,74.5,61.9,30.18,SSE,168,1.0,6.0,65,0.00,,,0.00,0.0,meteohub,2018-02-21 22:24:00,
2018-02-21 17:30:00,74.3,61.7,30.18,West,278,1.0,7.0,65,0.00,,,0.00,0.0,meteohub,2018-02-21 22:30:00,
2018-02-21 17:36:00,73.9,61.3,30.19,SE,138,2.0,7.0,65,0.00,,,0.00,0.0,meteohub,2018-02-21 22:36:00,
2018-02-21 17:42:00,73.8,61.7,30.19,NE,47,1.0,7.0,66,0.00,,,0.00,0.0,meteohub,2018-02-21 22:42:00,
2018-02-21 17:48:00,73.6,61.5,30.19,SW,224,2.0,7.0,66,0.00,,,0.00,0.0,meteohub,2018-02-21 22:48:00,
2018-02-21 17:54:00,73.2,61.5,30.19,NW,306,0.0,5.0,67,0.00,,,0.00,0.0,meteohub,2018-02-21 22:54:00,
2018-02-21 18:01:00,73.0,61.5,30.19,West,274,1.0,3.0,67,0.00,,,0.00,0.0,meteohub,2018-02-21 23:01:00,
2018-02-21 18:07:00,73.0,61.9,30.19,WSW,243,1.0,3.0,68,0.00,,,0.00,0.0,meteohub,2018-02-21 23:07:00,
2018-02-21 18:13:00,73.0,61.9,30.20,NNW,333,0.0,3.0,68,0.00,,,0.00,0.0,meteohub,2018-02-21 23:13:00,
2018-02-21 18:19:00,73.0,61.9,30.20,SSW,203,0.0,3.0,68,0.00,,,0.00,0.0,meteohub,2018-02-21 23:19:00,
2018-02-21 18:25:00,72.9,61.7,30.21,South,186,0.0,3.0,68,0.00,,,0.00,0.0,meteohub,2018-02-21 23:25:00,
2018-02-21 18:31:00,72.9,61.7,30.21,SSW,213,0.0,2.0,68,0.00,,,0.00,0.0,meteohub,2018-02-21 23:31:00,
2018-02-21 18:37:00,72.7,61.9,30.21,SSW,203,0.0,1.0,69,0.00,,,0.00,0.0,meteohub,2018-02-21 23:37:00,
2018-02-21 18:44:00,72.7,61.9,30.21,SSW,210,0.0,0.0,69,0.00,,,0.00,0.0,meteohub,2018-02-21 23:44:00,
2018-02-21 18:50:00,72.7,61.9,30.21,SW,231,0.0,0.0,69,0.00,,,0.00,0.0,meteohub,2018-02-21 23:50:00,
2018-02-21 18:56:00,72.5,62.2,30.22,West,274,1.0,2.0,70,0.00,,,0.00,0.0,meteohub,2018-02-21 23:56:00,
2018-02-21 19:02:00,72.5,62.2,30.22,ESE,114,0.0,2.0,70,0.00,,,0.00,0.0,meteohub,2018-02-22 00:02:00,
2018-02-21 19:08:00,72.5,62.2,30.22,SE,128,0.0,4.0,70,0.00,,,0.00,0.0,meteohub,2018-02-22 00:08:00,
2018-02-21 19:14:00,72.3,62.4,30.22,ENE,58,0.0,4.0,71,0.00,,,0.00,0.0,meteohub,2018-02-22 00:14:00,
2018-02-21 19:20:00,72.3,62.4,30.22,ENE,58,1.0,3.0,71,0.00,,,0.00,0.0,meteohub,2018-02-22 00:20:00,
2018-02-21 19:26:00,72.1,62.2,30.23,South,178,0.0,3.0,71,0.00,,,0.00,0.0,meteohub,2018-02-22 00:26:00,
2018-02-21 19:32:00,72.1,62.2,30.23,NW,317,0.0,2.0,71,0.00,,,0.00,0.0,meteohub,2018-02-22 00:32:00,
2018-02-21 19:42:00,72.0,62.1,30.23,WNW,296,0.0,2.0,71,0.00,,,0.00,0.0,meteohub,2018-02-22 00:42:00,
2018-02-21 19:47:00,71.8,61.9,30.25,NW,309,0.0,2.0,71,0.00,,,0.00,0.0,meteohub,2018-02-22 00:47:00,
2018-02-21 19:53:00,71.1,61.2,30.27,WNW,303,3.0,3.0,71,0.00,,,0.00,0.0,meteohub,2018-02-22 00:53:00,
2018-02-21 19:59:00,69.1,57.7,30.27,WNW,303,1.0,5.0,67,0.00,,,0.00,0.0,meteohub,2018-02-22 00:59:00,
2018-02-21 20:05:00,67.6,56.3,30.28,WNW,298,2.0,6.0,67,0.00,,,0.00,0.0,meteohub,2018-02-22 01:05:00,
2018-02-21 20:11:00,66.6,55.6,30.28,WNW,293,4.0,7.0,68,0.00,,,0.00,0.0,meteohub,2018-02-22 01:11:00,
2018-02-21 20:17:00,65.8,55.4,30.29,WNW,292,2.0,7.0,69,0.00,,,0.00,0.0,meteohub,2018-02-22 01:17:00,
2018-02-21 20:23:00,65.5,55.8,30.29,NW,307,1.0,7.0,71,0.00,,,0.00,0.0,meteohub,2018-02-22 01:23:00,
2018-02-21 20:30:00,65.1,55.9,30.30,WNW,298,2.0,5.0,72,0.00,,,0.00,0.0,meteohub,2018-02-22 01:30:00,
2018-02-21 20:36:00,64.6,55.4,30.30,WNW,295,2.0,4.0,72,0.00,,,0.00,0.0,meteohub,2018-02-22 01:36:00,
2018-02-21 20:42:00,64.2,55.0,30.30,WNW,295,2.0,4.0,72,0.00,,,0.00,0.0,meteohub,2018-02-22 01:42:00,
2018-02-21 20:48:00,63.7,54.9,30.31,WNW,298,1.0,3.0,73,0.00,,,0.00,0.0,meteohub,2018-02-22 01:48:00,
2018-02-21 20:54:00,63.7,55.2,30.31,WNW,296,1.0,3.0,74,0.00,,,0.00,0.0,meteohub,2018-02-22 01:54:00,